Powrót do katalogu

FENGYUN 1C DEB

AktywnySSO
NORAD 30315·DEBRIS·🇨🇳 China

Wystrzelony May 10, 1999 z Taiyuan Satellite Launch Center

Loading…

Następne Przeloty (najbliższe 24 godziny)

TLE

ŚwieżeSource: Space-Track

Epoka: Sep 14, 2026, 11:31 UTC

1 30315U 99025AAC 26257.48036981  .00000353  00000-0  18706-3 0  9994
2 30315  98.6005 263.9505 0033956 283.2016 231.9813 14.19394319 16187

Śledź FENGYUN 1C DEB w czasie rzeczywistym z AllMySat

Download on the App Store